Temp
7 7 7 7 7 6 6 6 6 5 5 5 5 4 4 3 3 2 1 2 1 1 1 1 2 2 3 3 4 4 4 4 4 4 4 3 3 3 3 3 3 3 3
7 7 7 7 7 6 6 6 5 5 5 5 5 5 4 3 3 2 1 2 2 1 0 1 1 2 3 3 3 4 4 4 4 4 4 3 3 3 3 3 3 3 2
7 7 7 7 6 6 6 6 6 5 6 5 5 5 4 4 3 3 2 2 1 1 0 1 1 2 2 3 3 3 4 4 4 3 4 3 3 3 3 3 3 2 2
7 7 7 6 6 6 6 6 6 5 5 5 5 4 4 4 4 3 2 1 2 1 1 1 1 2 2 2 3 3 4 4 4 4 4 3 3 3 3 2 2 2 2
6 6 6 6 6 6 6 5 5 5 5 5 5 4 4 4 4 3 2 2 1 1 1 1 1 2 2 3 3 3 3 3 3 3 3 3 3 3 3 2 2 2 1
7 7 7 6 6 6 5 5 5 5 5 5 4 4 4 4 3 3 3 2 2 2 2 1 1 2 2 3 3 3 3 3 3 3 3 3 3 3 2 2 2 1 1
7 7 6 6 6 5 5 5 5 5 4 5 4 4 4 4 4 3 3 3 2 1 1 1 1 1 2 3 3 3 3 3 3 3 3 3 3 3 2 2 1 1 1
7 6 6 6 6 5 5 5 4 4 4 4 4 4 4 4 4 4 3 3 3 2 2 2 1 1 2 3 3 3 3 3 3 3 3 3 3 2 2 2 1 1 1
7 6 6 6 5 5 4 4 4 4 4 4 4 4 4 4 4 4 3 3 3 2 2 2 1 1 1 2 3 3 3 3 3 3 3 2 2 2 2 1 1 1 1
7 6 5 5 5 5 2 3 4 3 3 3 3 3 3 4 4 4 4 3 3 3 2 2 2 2 1 2 3 2 3 3 3 3 2 2 2 2 1 1 1 1 1
7 5 4 5 4 4 3 1 2 3 2 3 3 3 3 3 4 4 4 4 3 3 2 2 1 1 1 2 2 2 3 2 3 2 2 2 2 2 2 1 1 1 0
6 5 4 2 2 3 3 2 2 1 1 2 3 3 3 3 4 4 3 4 3 3 3 2 1 2 1 1 2 2 2 2 2 2 2 2 2 2 1 1 1 0 0
5 4 4 3 2 2 3 2 2 1 1 2 2 3 3 3 3 3 3 3 4 3 3 3 2 2 2 2 2 1 1 1 1 2 2 2 1 1 1 1 1 0 -0
4 4 4 4 1 2 2 2 2 2 1 1 2 2 3 3 3 3 4 3 3 3 3 3 2 2 2 2 1 1 1 0 1 1 1 1 1 1 1 1 0 0 -1
3 2 3 1 1 2 2 2 2 2 2 2 2 2 3 3 3 3 3 3 3 3 3 3 3 2 2 1 1 1 1 0 -1 1 1 1 1 0 0 0 0 -0 0
2 2 2 1 2 3 3 2 2 2 2 2 2 2 2 3 3 3 3 3 2 3 3 3 3 3 2 2 1 1 1 1 1 -0 0 1 1 1 -0 0 0 -0 -0
2 2 2 2 3 3 2 2 2 2 2 2 2 2 2 3 3 3 3 3 2 3 3 2 3 4 2 2 1 1 1 1 1 0 -0 -1 0 0 0 -0 -0 -0 -0
1 2 2 2 3 3 3 3 2 3 3 2 2 2 2 2 2 3 3 3 3 2 3 3 3 4 3 2 1 1 1 1 1 0 0 0 -1 -2 -0 -1 -1 -1 -1
2 2 2 2 3 3 4 4 3 3 3 3 2 2 2 2 2 2 3 3 2 3 2 3 3 4 3 2 2 1 1 1 1 1 0 0 -1 -1 -1 -1 -1 -1 -1
1 2 2 2 3 3 3 4 4 4 4 3 3 2 2 2 1 1 1 2 2 2 3 2 3 5 4 2 2 2 1 1 1 1 -0 -0 -0 -1 -1 -1 -1 -1 -1
1 1 1 2 2 2 2 3 3 3 3 3 3 2 2 1 1 1 2 2 2 2 2 3 4 4 4 3 2 1 1 1 1 1 1 -0 -0 -1 -1 -2 -2 -3 -2
1 1 1 2 2 3 3 3 3 3 2 3 3 2 1 1 1 1 1 2 2 2 2 3 3 4 4 3 2 1 1 1 1 1 -0 0 -0 -1 -1 -2 -2 -3 -3
1 1 2 2 2 2 2 2 2 3 2 2 2 1 1 1 1 1 2 2 2 2 2 3 3 4 4 3 1 1 1 1 1 0 0 -1 -1 -0 -1 -1 -2 -2 -2
1 2 1 1 1 1 2 2 2 2 2 2 1 1 2 1 1 2 1 2 2 1 2 3 3 4 3 2 1 1 1 1 1 0 -0 -0 -0 -1 -1 -1 -1 -2 -2
1 1 1 0 0 0 1 2 2 1 1 1 1 1 1 1 1 1 1 1 1 1 1 2 3 3 3 1 1 1 0 0 0 1 0 0 -0 -1 -1 -2 -2 -2 -2
-1 -0 -0 -0 -0 -0 -0 0 1 1 1 1 -0 0 0 0 1 1 1 1 2 1 1 2 2 2 1 1 2 0 0 0 1 0 0 -0 -0 -1 -2 -1 -1 -2 -2
Height
3148 3148 3148 3149 3149 3150 3151 3152 3152 3152 3151 3151 3150 3148 3148 3148 3146 3145 3143 3144 3145 3145 3145 3147 3149 3150 3151 3151 3153 3153 3153 3154 3155 3156 3156 3158 3159 3160 3161 3162 3164 3166 3167
3144 3145 3144 3145 3145 3146 3147 3148 3149 3148 3149 3148 3148 3146 3145 3145 3144 3143 3141 3140 3140 3143 3145 3145 3147 3148 3149 3150 3151 3151 3152 3153 3153 3155 3156 3156 3158 3159 3161 3162 3163 3164 3166
3139 3141 3141 3140 3140 3140 3141 3143 3144 3145 3145 3145 3144 3144 3143 3142 3142 3141 3140 3138 3138 3140 3142 3143 3145 3146 3147 3148 3149 3150 3151 3152 3153 3153 3154 3154 3156 3158 3160 3161 3162 3165 3165
3133 3135 3135 3135 3135 3135 3136 3137 3138 3140 3141 3141 3141 3140 3140 3139 3139 3138 3137 3137 3137 3137 3138 3141 3143 3144 3145 3146 3147 3148 3149 3150 3151 3152 3153 3153 3154 3156 3158 3159 3162 3163 3164
3127 3128 3129 3130 3129 3129 3131 3132 3133 3134 3135 3136 3136 3136 3136 3136 3136 3135 3135 3134 3134 3133 3134 3137 3139 3140 3142 3143 3144 3145 3146 3148 3149 3150 3151 3152 3153 3155 3157 3158 3160 3162 3163
3119 3120 3121 3123 3123 3123 3125 3126 3127 3128 3129 3131 3131 3131 3131 3132 3132 3132 3132 3131 3131 3131 3133 3133 3135 3137 3139 3140 3141 3142 3144 3145 3146 3148 3149 3150 3152 3154 3155 3157 3159 3159 3161
3111 3112 3113 3114 3115 3117 3117 3119 3120 3122 3122 3124 3125 3125 3126 3127 3128 3129 3129 3129 3128 3128 3128 3129 3131 3132 3134 3136 3137 3139 3140 3141 3143 3145 3147 3148 3149 3151 3153 3155 3156 3157 3158
3101 3103 3104 3105 3106 3107 3109 3110 3112 3114 3115 3116 3119 3120 3120 3121 3122 3124 3125 3126 3125 3124 3123 3125 3126 3127 3129 3132 3133 3135 3137 3138 3138 3141 3144 3145 3147 3148 3150 3151 3152 3154 3155
3090 3093 3094 3094 3097 3098 3101 3101 3103 3105 3107 3109 3111 3113 3113 3113 3117 3118 3120 3121 3120 3120 3120 3120 3120 3122 3125 3126 3129 3131 3132 3134 3134 3136 3139 3142 3143 3144 3146 3147 3148 3150 3151
3079 3082 3083 3085 3086 3084 3084 3092 3093 3096 3098 3101 3104 3105 3106 3110 3109 3110 3113 3114 3114 3114 3114 3114 3115 3114 3119 3121 3123 3127 3129 3130 3131 3132 3134 3136 3138 3140 3142 3143 3144 3146 3147
3067 3067 3070 3075 3078 3079 3080 3083 3082 3087 3089 3092 3095 3098 3100 3100 3104 3105 3105 3108 3109 3108 3108 3109 3107 3109 3112 3115 3118 3121 3123 3125 3126 3128 3129 3131 3133 3135 3137 3139 3140 3141 3143
3050 3056 3059 3063 3067 3070 3069 3070 3070 3075 3079 3082 3086 3089 3092 3092 3095 3098 3100 3100 3103 3103 3103 3103 3103 3104 3107 3109 3112 3115 3117 3118 3121 3122 3124 3126 3128 3130 3132 3134 3135 3136 3138
3038 3044 3048 3050 3052 3060 3059 3060 3059 3067 3069 3072 3076 3079 3082 3085 3087 3089 3092 3094 3095 3097 3098 3097 3099 3100 3101 3103 3105 3107 3109 3112 3114 3116 3118 3120 3123 3125 3126 3128 3130 3132 3132
3035 3038 3040 3041 3027 3050 3052 3052 3055 3060 3061 3062 3065 3068 3073 3076 3079 3081 3084 3087 3087 3089 3092 3092 3093 3094 3095 3097 3099 3099 3100 3101 3105 3109 3112 3114 3116 3117 3119 3122 3124 3126 3127
3028 3029 3031 3036 3039 3042 3042 3044 3047 3049 3053 3054 3057 3060 3062 3066 3069 3072 3075 3078 3081 3081 3083 3085 3087 3088 3089 3091 3093 3093 3093 3094 3097 3100 3104 3106 3108 3111 3112 3114 3117 3119 3120
3019 3022 3027 3030 3032 3033 3033 3036 3038 3041 3043 3046 3048 3050 3053 3057 3060 3063 3065 3069 3072 3074 3076 3077 3079 3081 3083 3083 3084 3085 3087 3087 3087 3090 3095 3098 3100 3102 3105 3106 3109 3112 3114
3012 3015 3018 3021 3024 3024 3024 3026 3030 3033 3035 3037 3039 3041 3044 3047 3050 3054 3056 3060 3062 3064 3067 3070 3069 3073 3075 3075 3076 3078 3079 3080 3081 3082 3083 3087 3090 3093 3096 3099 3100 3103 3106
3005 3009 3011 3013 3014 3015 3017 3019 3021 3023 3025 3027 3030 3033 3036 3038 3040 3044 3046 3049 3052 3055 3058 3061 3062 3062 3065 3065 3067 3067 3069 3070 3069 3072 3073 3074 3076 3082 3086 3089 3091 3094 3097
2999 3001 3003 3005 3008 3010 3012 3012 3013 3014 3015 3018 3021 3023 3027 3028 3031 3034 3038 3040 3043 3045 3048 3051 3052 3054 3056 3057 3057 3059 3060 3060 3059 3061 3062 3063 3066 3071 3075 3078 3082 3084 3087
2993 2995 2997 3001 3003 3004 3005 3004 3006 3006 3007 3008 3011 3013 3017 3018 3021 3024 3027 3030 3034 3035 3038 3040 3042 3045 3047 3049 3049 3050 3050 3051 3050 3050 3052 3053 3056 3059 3064 3067 3071 3074 3077
2988 2990 2992 2994 2995 2996 2996 2996 2996 2997 2998 2999 3000 3003 3005 3009 3012 3014 3016 3019 3023 3026 3027 3029 3033 3035 3037 3038 3040 3042 3040 3041 3040 3041 3041 3042 3044 3046 3050 3055 3059 3063 3065
2983 2984 2986 2987 2986 2986 2986 2985 2986 2987 2988 2989 2990 2993 2996 2998 3001 3004 3007 3009 3012 3016 3018 3019 3023 3026 3028 3030 3030 3032 3030 3030 3030 3032 3030 3032 3034 3035 3038 3042 3046 3049 3053
2974 2976 2978 2979 2979 2978 2978 2977 2977 2978 2979 2980 2981 2983 2986 2988 2991 2994 2995 2999 3002 3003 3007 3010 3013 3016 3018 3021 3023 3021 3022 3021 3020 3020 3020 3020 3024 3024 3027 3031 3035 3039 3041
2967 2968 2968 2970 2970 2970 2969 2968 2969 2969 2970 2971 2972 2973 2973 2977 2980 2983 2987 2989 2992 2994 2997 3001 3004 3007 3009 3009 3011 3012 3011 3010 3010 3010 3010 3010 3011 3014 3018 3021 3025 3029 3032
2960 2962 2962 2961 2961 2961 2960 2960 2959 2959 2960 2961 2962 2963 2963 2965 2970 2974 2974 2975 2979 2984 2988 2991 2993 2995 2997 2999 3000 3001 3001 3002 3000 3002 3001 3001 3002 3003 3006 3009 3013 3017 3021
2954 2954 2953 2952 2952 2952 2951 2951 2951 2950 2950 2951 2952 2954 2954 2956 2959 2962 2964 2968 2970 2972 2979 2981 2982 2985 2987 2988 2991 2991 2992 2992 2992 2991 2994 2993 2992 2994 2995 2998 3001 3006 3009
Wind_Speed
15 16 16 15 13 13 13 13 12 11 10 10 9 8 8 10 12 16 16 16 19 18 14 8 8 8 9 7 7 7 8 8 9 10 11 11 11 12 12 12 11 11 10
20 19 19 19 19 18 17 17 16 15 15 13 11 12 10 11 13 13 17 16 22 21 15 12 11 10 10 9 8 8 9 10 10 10 11 12 12 12 12 12 13 12 10
26 25 24 25 24 23 22 22 21 20 20 18 15 14 14 12 14 15 11 14 17 22 18 13 13 12 13 10 9 10 11 11 11 12 13 13 13 13 13 13 12 12 12
31 31 30 29 30 30 28 26 26 23 24 23 20 17 17 16 15 16 13 12 13 22 19 17 15 15 14 13 11 12 13 13 13 13 14 14 14 14 14 13 13 13 12
34 34 35 34 35 35 33 31 30 28 27 26 25 21 20 19 18 18 18 16 16 24 24 19 19 18 16 17 15 15 15 15 15 15 14 15 16 15 14 14 14 13 12
37 37 37 37 37 38 37 37 35 34 31 29 28 26 24 24 22 20 20 21 16 15 23 23 23 22 19 18 18 16 17 17 16 16 17 16 16 15 14 15 15 14 13
41 41 40 40 40 39 39 39 39 38 36 32 31 31 28 27 26 23 21 20 22 20 19 27 24 24 21 20 21 19 20 19 18 19 18 17 16 16 16 17 16 14 14
47 45 43 44 44 40 39 39 41 40 40 37 34 33 31 30 28 26 26 23 20 21 24 26 29 28 24 23 23 22 22 22 21 20 20 19 19 18 18 18 16 16 16
53 48 47 49 48 38 37 37 37 39 39 37 37 36 34 35 29 33 31 28 24 27 26 21 28 35 31 26 25 25 24 25 24 23 22 22 21 20 20 20 18 17 17
55 50 52 52 53 53 33 34 34 33 36 35 35 36 35 32 36 41 30 28 27 24 27 26 29 35 34 29 28 26 24 26 26 26 25 24 23 23 24 21 19 18 18
55 52 50 51 50 50 43 44 32 33 31 32 31 33 35 36 33 39 32 27 27 22 25 26 26 32 30 28 29 28 25 27 28 29 27 26 25 26 25 22 21 20 18
59 51 46 41 39 36 26 37 56 38 32 33 36 35 38 39 36 38 35 32 25 23 22 25 21 27 32 29 28 29 27 29 30 31 30 29 28 27 26 25 24 22 21
55 50 50 36 38 36 32 32 27 31 35 38 39 39 40 40 39 41 38 35 32 28 24 25 26 27 34 34 29 32 29 35 32 33 33 32 30 29 27 27 26 26 24
50 53 49 59 28 31 31 32 32 35 38 37 40 41 42 40 38 40 39 34 36 34 26 25 25 28 30 34 33 31 39 38 34 34 35 34 34 32 30 29 29 29 25
37 35 40 22 34 30 29 33 35 36 37 37 38 40 42 40 40 40 37 35 42 39 33 28 24 26 31 34 37 39 33 34 35 35 37 37 37 36 34 32 31 33 32
39 41 24 29 29 33 31 34 38 36 35 36 35 38 38 39 40 40 40 40 40 40 38 33 28 28 28 33 37 38 31 34 37 43 39 38 39 39 39 35 33 34 34
27 30 28 29 32 33 33 33 36 35 34 35 35 35 36 37 39 41 41 42 40 40 39 38 35 30 28 29 36 37 32 34 35 36 44 47 42 41 42 40 36 36 37
33 35 33 34 31 30 31 31 32 34 36 36 35 36 36 37 38 38 40 43 40 40 39 39 38 34 29 33 33 35 37 34 40 42 42 50 49 44 44 43 42 39 40
28 29 27 26 25 26 30 31 32 32 33 35 35 38 39 40 41 42 42 41 40 41 42 40 39 33 33 29 31 33 39 34 34 35 41 53 46 44 45 45 46 42 43
26 23 23 24 26 28 33 33 32 33 35 36 39 39 38 41 40 41 45 42 42 42 42 41 40 36 34 33 31 31 36 30 34 38 33 42 48 47 47 47 46 44 46
23 22 22 23 24 27 30 30 34 37 39 40 40 40 38 40 39 36 37 44 45 48 47 46 39 37 37 35 33 28 30 34 36 34 46 49 49 51 50 49 48 45 48
21 20 22 25 28 30 32 33 34 38 37 38 42 42 35 42 43 37 39 36 47 47 47 46 39 39 36 38 33 33 32 30 32 35 35 52 53 56 55 54 51 50 49
20 20 22 24 25 26 28 29 30 34 36 37 37 42 44 42 38 37 32 33 42 45 46 46 39 38 37 33 31 29 32 27 29 24 31 33 47 63 62 55 48 47 45
21 26 28 25 23 24 26 27 27 29 31 35 36 39 40 45 47 40 40 38 38 44 44 43 40 37 37 33 30 32 33 33 30 28 28 32 32 54 63 61 53 48 47
27 30 31 29 27 25 25 27 30 30 29 30 32 33 34 37 40 36 38 48 31 37 40 39 39 37 36 34 36 36 35 35 34 31 29 33 35 35 63 64 59 55 52
25 26 27 29 28 27 27 27 29 31 31 30 30 30 31 33 41 49 46 50 40 39 37 36 36 37 36 31 36 35 34 36 32 33 30 31 32 38 55 67 60 57 60
Wind_Direction
241 248 250 249 247 246 248 249 259 271 280 289 301 305 298 286 290 284 275 291 232 215 239 230 252 249 246 245 242 227 211 200 191 190 185 185 185 185 186 181 179 184 184
248 248 251 253 254 254 255 256 258 265 272 275 282 290 292 292 283 291 297 309 228 219 231 239 248 249 245 244 237 232 222 211 198 197 194 189 189 191 191 189 188 187 185
251 252 253 253 252 250 249 255 260 263 271 271 271 278 284 282 284 285 295 312 230 214 215 226 246 256 245 246 242 237 226 219 209 202 201 195 192 196 197 194 193 197 187
248 250 252 254 255 255 252 249 255 260 264 270 267 269 276 283 285 278 271 288 264 233 220 226 234 246 242 244 244 239 229 223 218 210 208 203 201 200 200 197 200 201 197
249 249 251 252 254 255 255 253 254 256 257 263 265 264 268 272 280 277 266 268 286 237 231 231 237 244 249 246 243 239 232 227 221 217 212 210 207 204 204 204 206 206 209
250 246 246 249 252 255 255 255 255 255 255 256 260 259 262 265 268 273 274 267 265 260 242 242 243 245 251 247 240 238 231 227 226 223 217 214 212 210 211 214 211 208 220
247 247 245 243 246 249 254 255 255 254 254 253 253 256 256 264 267 270 277 283 260 257 249 242 245 247 250 248 240 236 230 223 222 225 223 217 216 215 215 216 216 220 229
244 247 248 248 245 245 250 254 254 251 250 251 254 255 254 257 263 271 277 279 270 264 257 253 246 243 250 250 243 238 232 223 219 221 224 221 217 217 220 220 220 227 238
245 245 247 245 249 240 244 246 247 249 250 249 251 252 252 259 266 279 274 272 272 257 261 265 245 243 248 252 243 239 233 230 221 218 222 222 219 219 223 223 227 233 241
245 245 248 246 247 248 258 239 233 234 243 244 246 248 248 253 265 275 262 265 268 261 255 253 254 237 239 244 245 242 239 236 231 223 219 221 225 225 227 225 232 238 242
243 236 242 249 255 260 269 248 231 234 238 244 248 247 248 250 256 258 267 261 263 268 258 261 266 233 232 240 244 245 241 240 235 231 226 226 227 230 233 232 233 236 240
233 232 238 242 250 256 274 261 261 228 238 248 255 251 244 245 248 253 258 265 261 257 257 253 252 233 234 242 247 248 245 241 240 236 232 230 231 233 236 236 236 235 237
231 229 230 235 238 246 262 273 265 249 239 250 256 254 248 246 246 250 253 258 264 255 253 256 251 249 244 238 248 254 255 244 242 239 235 234 235 237 238 240 238 236 235
233 237 244 251 267 254 255 262 259 250 248 252 255 252 249 245 243 247 250 253 259 260 257 251 258 252 247 240 246 251 252 247 237 243 240 236 237 235 238 240 241 241 229
238 251 262 256 245 254 257 257 258 256 256 254 253 251 248 246 243 244 246 241 244 255 258 258 256 256 253 247 251 256 264 265 237 240 243 240 238 239 237 238 241 242 244
252 249 240 248 256 264 254 252 253 254 252 252 251 249 249 247 244 244 243 243 244 247 255 260 259 255 253 258 252 256 254 262 261 241 237 242 242 241 242 238 240 244 246
246 236 247 258 261 253 255 252 248 249 252 252 250 250 250 248 246 245 244 246 244 247 249 255 265 263 266 261 253 248 255 252 249 256 243 236 239 244 242 242 239 243 245
243 241 250 257 255 253 255 256 251 247 248 249 250 249 249 248 246 245 245 246 247 247 249 252 261 263 266 266 248 247 250 259 254 256 260 250 244 234 245 242 240 241 244
242 242 248 249 250 252 254 256 256 253 246 249 247 249 251 252 249 248 248 244 243 245 246 249 259 262 266 254 252 253 246 272 254 256 257 248 247 231 244 243 242 240 244
243 239 240 243 243 242 245 247 252 257 255 247 248 244 248 250 251 251 250 247 243 246 249 252 256 261 264 258 251 260 259 268 257 254 250 255 249 236 243 243 242 243 245
240 242 248 253 257 258 255 255 252 254 257 256 249 246 245 249 250 251 257 249 243 246 250 251 255 257 263 264 257 260 260 269 261 264 259 255 256 242 238 241 241 242 246
245 254 262 263 264 268 263 262 259 254 257 258 251 253 249 248 245 252 257 253 244 244 249 252 254 257 263 260 256 258 265 270 268 267 257 256 249 245 243 241 242 243 244
262 266 270 272 261 262 263 261 258 255 255 255 256 251 248 248 248 242 252 252 236 249 249 252 252 255 260 264 258 257 264 272 257 265 264 263 261 248 243 246 241 247 247
272 273 275 274 271 267 268 269 264 262 260 257 258 256 258 248 248 242 246 240 244 247 251 249 252 254 259 258 254 254 257 258 256 264 265 272 268 255 241 245 243 242 243
276 271 272 274 272 271 267 265 269 271 267 263 261 259 260 252 238 247 245 239 239 243 246 246 250 252 256 253 249 257 255 265 261 268 266 265 265 267 246 238 245 245 248
274 276 277 276 273 272 271 269 268 267 269 267 261 262 261 254 240 246 246 250 245 237 248 249 252 253 255 250 244 251 255 257 261 263 276 271 267 261 253 242 246 246 247